Location: Cudham
(51.3000°N, 0.0667°E)
Time: 22:16:02
(UTC+00:00)

NOSS 3-1 (A) - Pass Details

Date: 19 May 2025
Orbit: 639 x 1569 km, 63.4° (Epoch: 10 June)

Event Time Altitude Azimuth Distance (km) Brightness Sun altitude
Exits shadow 22:37:42 - 220° (SW) 2,304 5.2 -16.7°
Reaches altitude 10° 22:38:04 10° 220° (SW) 2,161 5.0 -16.7°
Maximum altitude 22:42:56 85° 133° (SE) 797 3.0 -16.9°
Drops below altitude 10° 22:48:55 10° 46° (NE) 2,640 6.1 -17.2°
Sets 22:51:46 0° 46° (NE) 3,738 7.0 -17.3°
